• In Hungary
  • List of Countries
  • For 7 days
  • Water Temperature
  • Satellite Maps
  • Weather Map
  • News
  • Weather Widgets
  • user-avatar
    Login

    Hourly Weather Bahawalpur

    Today, 20 January, Saturday

    Time Temperature Precipitation Wind Pressure Humidity
    00:00 +17°C° 0 mm 2 mps 753 mmHg 18%
    01:00 +16°C° 0 mm 2 mps 753 mmHg 18%
    02:00 +15°C° 0 mm 2 mps 752 mmHg 18%
    03:00 +15°C° 0 mm 1 mps 752 mmHg 18%
    04:00 +15°C° 0 mm 1 mps 752 mmHg 18%
    05:00 +15°C° 0 mm 2 mps 752 mmHg 19%
    06:00 +15°C° 0 mm 2 mps 752 mmHg 19%
    07:00 +15°C° 0 mm 1 mps 752 mmHg 19%
    08:00 +15°C° 0 mm 1 mps 752 mmHg 19%
    09:00 +19°C° 0 mm 1 mps 752 mmHg 16%
    10:00 +21°C° 0 mm 1 mps 752 mmHg 13%
    11:00 +24°C° 0 mm 1 mps 752 mmHg 11%
    12:00 +25°C° 0 mm 1 mps 752 mmHg 9%
    13:00 +26°C° 0 mm 1 mps 751 mmHg 8%
    14:00 +27°C° 0 mm 1 mps 751 mmHg 7%
    15:00 +27°C° 0 mm 1 mps 750 mmHg 8%
    16:00 +26°C° 0 mm 1 mps 750 mmHg 8%
    17:00 +26°C° 0 mm 1 mps 750 mmHg 9%
    18:00 +24°C° 0 mm 2 mps 750 mmHg 10%
    19:00 +21°C° 0 mm 2 mps 750 mmHg 10%
    20:00 +20°C° 0 mm 2 mps 750 mmHg 11%
    21:00 +19°C° 0 mm 2 mps 750 mmHg 11%
    22:00 +19°C° 0 mm 2 mps 750 mmHg 11%
    23:00 +18°C° 0 mm 2 mps 750 mmHg 12%

    Tomorrow, 21 January, Sunday

    Time Temperature Precipitation Wind Pressure Humidity
    00:00 +18°C° 0 mm 2 mps 750 mmHg 12%
    01:00 +17°C° 0 mm 2 mps 750 mmHg 13%
    02:00 +17°C° 0 mm 2 mps 750 mmHg 13%
    03:00 +17°C° 0 mm 2 mps 749 mmHg 14%
    04:00 +16°C° 0 mm 2 mps 749 mmHg 14%
    05:00 +16°C° 0 mm 2 mps 749 mmHg 15%
    06:00 +16°C° 0 mm 2 mps 749 mmHg 15%
    07:00 +16°C° 0 mm 2 mps 750 mmHg 15%
    08:00 +16°C° 0 mm 2 mps 750 mmHg 15%
    09:00 +19°C° 0 mm 2 mps 750 mmHg 13%
    10:00 +22°C° 0 mm 3 mps 751 mmHg 11%
    11:00 +26°C° 0 mm 3 mps 751 mmHg 9%
    12:00 +26°C° 0 mm 3 mps 750 mmHg 9%
    13:00 +27°C° 0 mm 3 mps 749 mmHg 8%
    14:00 +28°C° 0 mm 3 mps 749 mmHg 8%
    15:00 +27°C° 0 mm 3 mps 749 mmHg 8%
    16:00 +27°C° 0 mm 2 mps 748 mmHg 9%
    17:00 +26°C° 0 mm 2 mps 748 mmHg 9%
    18:00 +24°C° 0 mm 2 mps 749 mmHg 10%
    19:00 +23°C° 0 mm 2 mps 749 mmHg 10%
    20:00 +20°C° 0 mm 2 mps 749 mmHg 11%
    21:00 +20°C° 0 mm 2 mps 749 mmHg 11%
    22:00 +19°C° 0 mm 2 mps 749 mmHg 11%
    23:00 +19°C° 0 mm 2 mps 749 mmHg 11%

    Day after tomorrow, 22 January, Monday

    Time Temperature Precipitation Wind Pressure Humidity
    00:00 +18°C° 0 mm 2 mps 749 mmHg 11%
    01:00 +18°C° 0 mm 2 mps 749 mmHg 11%
    02:00 +18°C° 0 mm 1 mps 749 mmHg 12%
    03:00 +18°C° 0 mm 1 mps 748 mmHg 12%
    04:00 +16°C° 0 mm 1 mps 748 mmHg 12%
    05:00 +15°C° 0 mm 1 mps 748 mmHg 13%
    06:00 +16°C° 0 mm 1 mps 748 mmHg 13%
    07:00 +16°C° 0 mm 1 mps 749 mmHg 13%
    08:00 +16°C° 0 mm 2 mps 749 mmHg 13%
    09:00 +19°C° 0 mm 2 mps 749 mmHg 11%
    10:00 +21°C° 0 mm 2 mps 749 mmHg 9%
    11:00 +24°C° 0 mm 2 mps 750 mmHg 8%
    12:00 +25°C° 0 mm 2 mps 749 mmHg 7%
    13:00 +26°C° 0 mm 2 mps 748 mmHg 7%
    14:00 +27°C° 0 mm 2 mps 747 mmHg 7%
    15:00 +27°C° 0 mm 2 mps 747 mmHg 7%
    16:00 +26°C° 0 mm 2 mps 746 mmHg 8%
    17:00 +25°C° 0 mm 2 mps 746 mmHg 9%
    18:00 +24°C° 0 mm 2 mps 746 mmHg 9%
    19:00 +21°C° 0 mm 2 mps 747 mmHg 9%
    20:00 +20°C° 0 mm 2 mps 747 mmHg 10%
    21:00 +19°C° 0 mm 2 mps 747 mmHg 10%
    22:00 +19°C° 0 mm 2 mps 747 mmHg 10%
    23:00 +18°C° 0 mm 3 mps 747 mmHg 10%

    23 January, Tuesday

    Time Temperature Precipitation Wind Pressure Humidity
    00:00 +17°C° 0 mm 3 mps 746 mmHg 11%
    01:00 +17°C° 0 mm 3 mps 746 mmHg 12%
    02:00 +16°C° 0 mm 3 mps 746 mmHg 13%
    03:00 +14°C° 0 mm 3 mps 746 mmHg 14%
    04:00 +14°C° 0 mm 4 mps 746 mmHg 15%
    05:00 +13°C° 0 mm 4 mps 746 mmHg 17%
    06:00 +13°C° 0 mm 4 mps 746 mmHg 18%
    07:00 +13°C° 0 mm 4 mps 747 mmHg 19%
    08:00 +13°C° 0 mm 4 mps 747 mmHg 21%
    09:00 +15°C° 0 mm 5 mps 747 mmHg 20%
    10:00 +17°C° 0 mm 5 mps 748 mmHg 20%
    11:00 +20°C° 0 mm 5 mps 748 mmHg 19%
    12:00 +22°C° 0 mm 6 mps 747 mmHg 18%
    13:00 +23°C° 0 mm 6 mps 746 mmHg 16%
    14:00 +26°C° 0 mm 7 mps 746 mmHg 15%
    15:00 +24°C° 0 mm 7 mps 746 mmHg 15%
    16:00 +24°C° 0 mm 6 mps 746 mmHg 15%
    17:00 +24°C° 0 mm 6 mps 746 mmHg 16%
    18:00 +22°C° 0 mm 5 mps 747 mmHg 17%
    19:00 +20°C° 0 mm 5 mps 747 mmHg 18%
    20:00 +19°C° 0 mm 4 mps 748 mmHg 20%
    21:00 +18°C° 0 mm 4 mps 748 mmHg 24%
    22:00 +17°C° 0 mm 3 mps 749 mmHg 29%
    23:00 +16°C° 0 mm 2 mps 749 mmHg 33%

    24 January, Wednesday

    Time Temperature Precipitation Wind Pressure Humidity
    00:00 +15°C° 0 mm 2 mps 749 mmHg 40%
    01:00 +15°C° 0 mm 1 mps 748 mmHg 46%
    02:00 +14°C° 0 mm 1 mps 748 mmHg 53%
    03:00 +13°C° 0 mm 1 mps 748 mmHg 56%
    04:00 +13°C° 0 mm 1 mps 748 mmHg 58%
    05:00 +13°C° 0 mm 1 mps 749 mmHg 61%
    06:00 +13°C° 0 mm 1 mps 749 mmHg 61%
    07:00 +13°C° 0 mm 1 mps 750 mmHg 62%
    08:00 +14°C° 0 mm 1 mps 750 mmHg 62%
    09:00 +16°C° 0 mm 1 mps 750 mmHg 53%
    10:00 +19°C° 0 mm 1 mps 751 mmHg 43%
    11:00 +22°C° 0 mm 1 mps 751 mmHg 34%
    12:00 +23°C° 0 mm 1 mps 750 mmHg 28%
    13:00 +24°C° 0 mm 1 mps 750 mmHg 23%
    14:00 +25°C° 0 mm 1 mps 749 mmHg 18%
    15:00 +25°C° 0 mm 1 mps 749 mmHg 18%
    16:00 +25°C° 0 mm 1 mps 749 mmHg 17%
    17:00 +24°C° 0 mm 1 mps 749 mmHg 17%
    18:00 +23°C° 0 mm 1 mps 749 mmHg 19%
    19:00 +21°C° 0 mm 1 mps 749 mmHg 21%
    20:00 +19°C° 0 mm 2 mps 750 mmHg 23%
    21:00 +18°C° 0 mm 2 mps 750 mmHg 23%
    22:00 +18°C° 0 mm 2 mps 750 mmHg 24%
    23:00 +18°C° 0 mm 2 mps 750 mmHg 24%

    25 January, Thursday

    Time Temperature Precipitation Wind Pressure Humidity
    00:00 +17°C° 0 mm 2 mps 750 mmHg 25%
    01:00 +17°C° 0 mm 2 mps 749 mmHg 26%
    02:00 +17°C° 0 mm 2 mps 749 mmHg 27%
    03:00 +16°C° 0 mm 1 mps 749 mmHg 28%
    04:00 +15°C° 0 mm 1 mps 749 mmHg 29%
    05:00 +15°C° 0 mm 1 mps 749 mmHg 30%
    06:00 +15°C° 0 mm 1 mps 749 mmHg 31%
    07:00 +15°C° 0 mm 1 mps 750 mmHg 32%
    08:00 +15°C° 0 mm 1 mps 750 mmHg 32%
    09:00 +19°C° 0 mm 1 mps 750 mmHg 28%
    10:00 +21°C° 0 mm 1 mps 750 mmHg 24%
    11:00 +24°C° 0 mm 2 mps 750 mmHg 20%
    12:00 +25°C° 0 mm 2 mps 749 mmHg 18%
    13:00 +26°C° 0 mm 2 mps 749 mmHg 16%
    14:00 +27°C° 0 mm 3 mps 748 mmHg 13%
    15:00 +27°C° 0 mm 2 mps 748 mmHg 14%
    16:00 +26°C° 0 mm 2 mps 747 mmHg 14%
    17:00 +26°C° 0 mm 2 mps 747 mmHg 14%
    18:00 +24°C° 0 mm 2 mps 747 mmHg 15%
    19:00 +23°C° 0 mm 2 mps 748 mmHg 16%
    20:00 +20°C° 0 mm 2 mps 748 mmHg 17%
    21:00 +20°C° 0 mm 2 mps 748 mmHg 18%
    22:00 +19°C° 0 mm 2 mps 748 mmHg 18%
    23:00 +19°C° 0 mm 2 mps 748 mmHg 19%
    Show more